Volver al catálogo

DMSP 5D-2 F13 DEB

ActivoPO
NORAD 42308·DEBRIS·🇺🇸 United States

Lanzado Mar 24, 1995 desde Vandenberg Space Force Base

Loading…

Próximos Pases (próximas 24 horas)

TLE

ActualizadoSource: Space-Track

Época: Sep 12, 2026, 09:29 UTC

1 42308U 95015JA  26255.39540172  .00009456  00000-0  18058-2 0  9996
2 42308  98.8750 317.2862 0010476 301.9588  58.0593 14.64136204590620

Sigue DMSP 5D-2 F13 DEB en tiempo real con AllMySat

Download on the App Store